56,28/09/2015 12:05,1443441908,59.88281,-3.86161,3,2,28/09/2015 12:05,1443441909,12.243,8,11,0,0,59.8993,-3.9227,3,5
57,28/09/2015 13:05,1443445508,59.88281,-3.86161,10,3,28/09/2015 13:05,1443445537,12.243,27,11,0,0,59.9008,-3.9379,3,5
58,28/09/2015 14:05,1443449113,59.88069,-3.9329,4,2,28/09/2015 14:05,1443449109,12.286,27,11,0,0,59.9035,-3.9579,3,4
59,28/09/2015 15:05,1443452710,60.03473,-6.47497,152,4,28/09/2015 15:05,1443452711,12.243,27,11,0,0,59.9042,-3.9801,3,5
60,28/09/2015 16:05,1443456313,59.90954,-4.00917,3,3,28/09/2015 16:05,1443456311,12.286,27,11,0,0,59.9058,-4.0003,3,5
61,28/09/2015 17:05,1443459922,59.90954,-4.00917,785,3,28/09/2015 17:05,1443459911,12.286,24,11,0,0,59.9074,-4.0055,3,3
62,28/09/2015 18:05,1443463513,59.9117,-3.9378,2,2,28/09/2015 18:05,1443463535,12.243,24,11,0,0,59.9076,-3.9933,3,3
63,28/09/2015 19:05,1443467111,59.90054,-4.2945,11,3,28/09/2015 19:05,1443467102,12.243,24,11,0,0,0,0,3,5
64,28/09/2015 20:05,1443470709,59.9117,-3.9378,3,2,28/09/2015 20:05,1443470737,12.243,24,11,0,0,59.9073,-3.9503,3,2
65,28/09/2015 21:05,1443474322,59.88281,-3.86161,3,2,28/09/2015 21:05,1443474325,12.243,23,11,0,0,59.9101,-3.9218,3,2
66,28/09/2015 22:05,1443477910,59.93389,-3.79504,6,2,28/09/2015 22:05,1443477920,12.243,23,11,0,0,59.9126,-3.893,3,5
67,28/09/2015 23:05,1443481507,59.93181,-3.86643,2,2,28/09/2015 23:05,1443481545,12.243,23,11,0,0,59.9151,-3.875,3,5
68,29/09/2015 00:05,1443485151,59.79427,-6.07246,145,2,29/09/2015 00:05,1443485157,12.243,23,11,0,0,59.9189,-3.8691,35,2
69,29/09/2015 01:05,1443488711,59.91381,-3.86643,4,2,29/09/2015 01:05,1443488744,12.243,27,11,0,0,59.9228,-3.8739,3,2
70,29/09/2015 02:05,1443492307,59.97838,-3.29911,88,3,29/09/2015 02:05,1443492313,12.2,27,11,0,0,59.9273,-3.888,3,4
71,29/09/2015 03:05,1443495910,59.91381,-3.86643,3,4,29/09/2015 03:05,1443495900,12.2,27,11,0,0,0,0,3,5
72,29/09/2015 04:05,1443499517,59.95579,-2.93751,85,2,29/09/2015 04:05,1443499508,12.2,27,11,0,0,59.9309,-3.9183,3,5
73,29/09/2015 05:05,1443503108,59.9297,-3.9378,2,3,29/09/2015 05:05,1443503114,12.2,30,11,0,0,59.932,-3.9295,3,5
74,29/09/2015 06:06,1443506779,59.93181,-3.86643,3,4,29/09/2015 06:05,1443506718,12.2,30,11,0,0,59.9342,-3.9243,70,1
75,29/09/2015 07:05,1443510313,59.96491,-3.79978,2,3,29/09/2015 07:05,1443510309,12.2,30,11,0,0,59.9349,-3.9035,3,5
76,29/09/2015 08:06,1443513985,59.93389,-3.79504,4,2,29/09/2015 08:05,1443513920,12.2,30,11,0,0,59.9354,-3.8737,65,5
77,29/09/2015 09:05,1443517512,59.96491,-3.79978,6,3,29/09/2015 09:05,1443517504,12.2,30,11,0,0,59.936,-3.8368,3,3
78,29/09/2015 10:05,1443521136,59.96695,-3.72829,5,5,29/09/2015 10:05,1443521100,12.2,30,11,0,0,0,0,18,5
79,29/09/2015 11:05,1443524711,59.91793,-3.72364,7,2,29/09/2015 11:05,1443524702,12.2,30,11,0,0,59.9417,-3.7766,3,5
80,29/09/2015 12:05,1443528311,59.96695,-3.72829,3,2,29/09/2015 12:05,1443528312,12.2,30,11,0,0,59.946,-3.7601,3,5
81,29/09/2015 13:05,1443531912,60.28199,-8.79571,288,7,29/09/2015 13:05,1443531937,12.2,29,11,0,0,59.9488,-3.759,3,2
82,29/09/2015 14:05,1443535525,59.96491,-3.79978,2,3,29/09/2015 14:05,1443535512,12.2,29,11,0,0,59.9519,-3.7682,18,5
83,29/09/2015 15:05,1443539136,60.22368,-8.92753,304,2,29/09/2015 15:05,1443539123,12.2,29,11,0,0,59.9554,-3.7837,18,5
84,29/09/2015 16:05,1443542713,59.96695,-3.72829,2,3,29/09/2015 16:05,1443542742,12.2,29,11,0,0,59.9584,-3.7959,3,5
85,29/09/2015 17:03,1443546226,60.08606,-6.05419,141,2,29/09/2015 17:05,1443546328,12.2,30,11,0,0,59.9601,-3.8026,18,5
86,29/09/2015 18:05,1443549912,59.99799,-3.73295,6,2,29/09/2015 18:05,1443549913,12.2,29,10.8,0,0,59.9615,-3.7986,3,2
87,29/09/2015 19:05,1443553514,59.93389,-3.79504,10,1,29/09/2015 19:05,1443553535,12.2,29,11,0,0,59.9608,-3.7802,3,4
88,29/09/2015 20:05,1443557108,59.93593,-3.72364,3,2,29/09/2015 20:05,1443557106,12.2,29,11,0,0,59.9619,-3.7571,3,5
89,29/09/2015 21:05,1443560710,59.96895,-3.65679,4,3,29/09/2015 21:05,1443560707,12.2,28,11,0,0,59.9627,-3.7261,3,5
90,29/09/2015 22:05,1443564329,59.96895,-3.65679,6,3,29/09/2015 22:05,1443564310,12.2,28,11,0,0,59.9633,-3.6898,21,5
91,29/09/2015 23:05,1443567911,59.93792,-3.65222,3,2,29/09/2015 23:05,1443567912,12.2,28,11,0,0,59.964,-3.6614,3,5
92,30/09/2015 00:05,1443571510,59.92305,-6.09517,158,2,30/09/2015 00:05,1443571538,12.2,28,11,0,0,59.9652,-3.6403,3,5
93,30/09/2015 01:05,1443575112,60.01992,-3.58976,6,2,30/09/2015 01:05,1443575130,12.2,25,11,0,0,59.9675,-3.6383,3,5
94,30/09/2015 02:05,1443578711,59.90502,-5.80311,132,3,30/09/2015 02:05,1443578714,12.2,25,11,0,0,59.9704,-3.6432,3,5
95,30/09/2015 03:05,1443582311,60.01795,-3.66136,8,2,30/09/2015 03:05,1443582300,12.2,25,11,0,0,59.9709,-3.6581,3,5
96,30/09/2015 04:05,1443585913,60.00196,-3.58976,3,2,30/09/2015 04:05,1443585911,12.2,25,11,0,0,59.9695,-3.6799,3,5
97,30/09/2015 05:05,1443589539,59.96695,-3.72829,5,2,30/09/2015 05:05,1443589542,12.2,28,11,0,0,59.9668,-3.7015,23,2
98,30/09/2015 06:05,1443593114,59.96071,-3.94272,11,2,30/09/2015 06:05,1443593106,12.2,28,11,0,0,59.9641,-3.7186,3,5
99,30/09/2015 07:05,1443596710,59.93792,-3.65222,3,2,30/09/2015 07:05,1443596714,12.2,28,11,0,0,59.9627,-3.7233,3,5
100,30/09/2015 08:05,1443600313,59.96695,-3.72829,6,2,30/09/2015 08:05,1443600355,12.2,28,11,0,0,59.964,-3.7066,3,3
101,30/09/2015 09:05,1443603910,59.96895,-3.65679,3,3,30/09/2015 09:05,1443603934,12.2,29,11,0,0,59.9641,-3.6796,3,5
102,30/09/2015 10:05,1443607521,59.93989,-3.5808,12,6,30/09/2015 10:05,1443607506,12.2,29,11,0,0,59.9643,-3.6461,3,2
103,30/09/2015 11:05,1443611111,59.97284,-3.51375,2,2,30/09/2015 11:05,1443611113,12.2,29,11,0,0,59.9629,-3.6137,3,2
104,30/09/2015 12:05,1443614713,59.97091,-3.58527,2,1,30/09/2015 12:05,1443614711,12.2,29,11,0,0,59.9615,-3.5848,3,5
105,30/09/2015 13:05,1443618341,59.94181,-3.50936,4,3,30/09/2015 13:05,1443618343,12.2,32,11,0,0,59.9582,-3.5698,21,3
106,30/09/2015 14:05,1443621924,60.00389,-3.51815,9,2,30/09/2015 14:05,1443621908,12.2,32,11,0,0,59.955,-3.5745,3,4
107,30/09/2015 15:05,1443625511,59.93989,-3.5808,4,2,30/09/2015 15:05,1443625513,12.2,32,11,0,0,59.9542,-3.5915,3,5
108,30/09/2015 16:05,1443629120,59.93792,-3.65222,3,2,30/09/2015 16:05,1443629157,12.2,32,11,0,0,59.9621,-3.5974,3,5
109,30/09/2015 17:05,1443632710,59.97091,-3.58527,8,2,30/09/2015 17:05,1443632700,12.2,24,11,0,0,59.9523,-3.6418,3,5
110,30/09/2015 18:05,1443636310,59.96895,-3.65679,3,2,30/09/2015 18:05,1443636337,12.2,24,11,0,0,59.9526,-3.657,3,5
111,30/09/2015 19:05,1443639910,60.05496,-5.32453,128,2,30/09/2015 19:05,1443639941,12.2,24,11,0,0,59.9525,-3.661,3,5
112,30/09/2015 20:05,1443643516,59.93989,-3.5808,2,2,30/09/2015 20:05,1443643513,12.2,24,11,0,0,59.9529,-3.6525,3,5
113,30/09/2015 21:06,1443647181,59.96895,-3.65679,2,3,30/09/2015 21:05,1443647130,12.2,31,11,0,0,59.9541,-3.6271,73,1
114,30/09/2015 22:05,1443650710,59.97091,-3.58527,14,2,30/09/2015 22:05,1443650700,12.2,31,11,0,0,0,0,3,5
115,30/09/2015 23:05,1443654310,59.97284,-3.51375,2,2,30/09/2015 23:05,1443654314,12.2,31,11,0,0,59.9543,-3.5444,3,3
116,01/10/2015 00:05,1443657909,59.94554,-3.36646,3,2,01/10/2015 00:05,1443657911,12.2,31,11,0,0,59.9524,-3.5061,3,5
117,01/10/2015 01:05,1443661517,59.94369,-3.43792,6,2,01/10/2015 01:05,1443661524,12.2,25,11,0,0,59.9487,-3.4864,3,2
118,01/10/2015 02:05,1443665125,59.76035,-7.57581,245,2,01/10/2015 02:05,1443665136,12.2,25,11,0,0,59.9446,-3.4845,18,5
119,01/10/2015 03:05,1443668709,59.94369,-3.43792,6,3,01/10/2015 03:05,1443668719,12.2,25,11,0,0,59.9419,-3.4997,3,5
120,01/10/2015 04:05,1443672316,59.92381,-3.50936,3,2,01/10/2015 04:05,1443672314,12.2,25,11,0,0,59.9402,-3.5235,3,5
121,01/10/2015 05:05,1443675923,59.92381,-3.50936,3,3,01/10/2015 05:05,1443675912,12.2,28,11,0,0,59.9392,-3.5536,18,4
122,01/10/2015 06:05,1443679510,59.90285,-4.22319,75,3,01/10/2015 06:05,1443679514,12.2,28,11,0,0,59.9378,-3.578,3,4
123,01/10/2015 07:05,1443683111,59.97091,-3.58527,6,2,01/10/2015 07:05,1443683147,12.2,28,11,0,0,59.937,-3.5884,3,4
124,01/10/2015 08:05,1443686712,59.94961,-1.4321,166,3,01/10/2015 08:05,1443686746,12.2,28,11,0,0,59.9359,-3.5817,3,5
125,01/10/2015 09:05,1443690311,59.94181,-3.50936,2,2,01/10/2015 09:05,1443690345,12.2,28,11,0,0,59.9355,-3.5665,3,5
126,01/10/2015 10:05,1443693919,59.94181,-3.50936,3,2,01/10/2015 10:05,1443693907,12.2,28,11,0,0,59.9348,-3.5403,3,5
127,01/10/2015 11:05,1443697512,59.94181,-3.50936,3,3,01/10/2015 11:05,1443697523,12.2,28,11,0,0,59.9347,-3.5066,3,5
128,01/10/2015 12:05,1443701107,59.89467,-3.43363,3,4,01/10/2015 12:05,1443701141,12.2,28,11,0,0,59.9333,-3.4756,3,5
129,01/10/2015 13:05,1443704709,59.92754,-3.36646,4,2,01/10/2015 13:05,1443704715,12.2,34,11,0,0,59.9327,-3.4555,3,5
130,01/10/2015 14:05,1443708307,59.92569,-3.43792,5,3,01/10/2015 14:05,1443708341,12.2,34,11,0,0,59.9325,-3.4428,3,5
131,01/10/2015 15:05,1443711912,59.94554,-3.36646,4,1,01/10/2015 15:05,1443711907,12.2,34,11,0,0,59.9325,-3.445,3,5
132,01/10/2015 16:05,1443715510,59.94369,-3.43792,3,2,01/10/2015 16:05,1443715500,12.2,34,11,0,0,59.9319,-3.455,3,5
133,01/10/2015 17:05,1443719113,59.94181,-3.50936,3,2,01/10/2015 17:05,1443719133,12.2,28,11,0,0,59.9293,-3.467,3,5
134,01/10/2015 18:05,1443722743,59.92569,-3.43792,2,584,01/10/2015 18:05,1443722711,12.2,28,11,0,0,59.927,-3.4839,34,5
135,01/10/2015 19:05,1443726311,59.89279,-3.50499,3,2,01/10/2015 19:05,1443726334,12.2,28,11,0,0,59.9184,-3.4881,3,5
136,01/10/2015 20:05,1443729913,59.94181,-3.50936,2,2,01/10/2015 20:05,1443729900,12.157,28,11,0,0,0,0,3,5
137,01/10/2015 21:05,1443733512,59.89467,-3.43363,3,7,01/10/2015 21:05,1443733500,12.157,31,11,0,0,0,0,3,5
138,01/10/2015 22:05,1443737122,59.94554,-3.36646,3,2,01/10/2015 22:05,1443737123,12.157,31,11,0,0,59.9283,-3.4441,3,5
139,01/10/2015 23:05,1443740711,59.94369,-3.43792,2,3,01/10/2015 23:05,1443740700,12.157,31,11,0,0,0,0,3,4
140,02/10/2015 00:05,1443744328,59.94554,-3.36646,4,2,02/10/2015 00:05,1443744335,12.157,31,11,0,0,59.934,-3.3662,18,4
141,02/10/2015 01:05,1443747912,59.89831,-3.29088,5,2,02/10/2015 01:05,1443747919,12.157,36,11,0,0,59.9379,-3.3333,3,5
142,02/10/2015 02:05,1443751511,59.98016,-3.22755,8,4,02/10/2015 02:05,1443751500,12.157,36,11,0,0,0,0,3,5
143,02/10/2015 03:05,1443755111,59.98016,-3.22755,5,2,02/10/2015 03:05,1443755128,12.157,36,11,0,0,59.9429,-3.2815,3,5
144,02/10/2015 04:05,1443758725,59.80233,-7.15156,229,2,02/10/2015 04:05,1443758700,12.114,36,11,0,0,0,0,18,5
145,02/10/2015 05:05,1443762309,59.94734,-3.29499,2,2,02/10/2015 05:05,1443762311,12.114,30,11,0,0,59.9437,-3.2778,3,3
146,02/10/2015 06:05,1443765926,59.94734,-3.29499,3,1,02/10/2015 06:05,1443765925,12.114,30,11,0,0,59.9425,-3.2865,18,3
147,02/10/2015 07:05,1443769532,59.94734,-3.29499,6,2,02/10/2015 07:05,1443769507,12.071,30,11,0,0,59.9411,-3.2989,22,4
148,02/10/2015 08:07,1443773259,59.94911,-3.22352,3,2,02/10/2015 08:05,1443773112,12.071,30,11,0,0,59.9425,-3.3092,148,5
149,02/10/2015 09:05,1443776717,59.98016,-3.22755,5,2,02/10/2015 09:05,1443776728,12.071,33,11,0,0,59.9468,-3.31,3,5
150,02/10/2015 10:05,1443780322,59.9076,-0.42917,160,3,02/10/2015 10:05,1443780313,12.071,33,11,0,0,59.9544,-3.2964,3,4
151,02/10/2015 11:05,1443783910,59.98016,-3.22755,4,3,02/10/2015 11:05,1443783900,12.071,33,11,0,0,59.9625,-3.2674,3,5
152,02/10/2015 12:05,1443787511,59.95253,-3.08053,10,2,02/10/2015 12:05,1443787511,12.071,33,11,0,0,59.9694,-3.2236,3,5
153,02/10/2015 13:05,1443791110,59.98358,-3.08438,3,2,02/10/2015 13:05,1443791111,12.071,27,11,0,0,59.9727,-3.1801,3,5
154,02/10/2015 14:05,1443794720,59.98358,-3.08438,3,2,02/10/2015 14:05,1443794710,12.071,27,11,0,0,59.9725,-3.1424,3,5
155,02/10/2015 15:05,1443798313,59.95084,-3.15203,12,5,02/10/2015 15:05,1443798311,12.071,27,11,0,0,59.9706,-3.1195,3,5
156,02/10/2015 16:05,1443801912,59.92475,-2.93384,15,4,02/10/2015 16:05,1443801912,12.071,27,11,0,0,59.9695,-3.116,3,3
157,02/10/2015 17:05,1443805511,59.95253,-3.08053,3,2,02/10/2015 17:05,1443805506,12.028,25,11,0,0,59.995,-3.0845,3,5
158,02/10/2015 18:05,1443809113,59.98189,-3.15597,2,2,02/10/2015 18:05,1443809143,12.071,25,11,0,0,59.9716,-3.147,3,5
159,02/10/2015 19:05,1443812728,59.95084,-3.15203,22,2,02/10/2015 19:05,1443812736,12.028,25,11,0,0,59.9662,-3.1954,19,4
160,02/10/2015 20:05,1443816317,59.98189,-3.15597,3,3,02/10/2015 20:05,1443816311,12.028,25,11,0,0,59.9838,-3.1887,3,2
161,02/10/2015 21:05,1443819926,59.98358,-3.08438,4,2,02/10/2015 21:05,1443819943,12.028,26,11,0,0,59.9907,-3.1917,17,5
162,02/10/2015 22:05,1443823510,59.98189,-3.15597,5,3,02/10/2015 22:05,1443823533,12.028,26,11,0,0,60.0005,-3.1818,3,5
163,02/10/2015 23:05,1443827110,59.98358,-3.08438,5,2,02/10/2015 23:05,1443827114,12.028,26,11,0,0,60.0096,-3.1626,3,5
164,03/10/2015 00:05,1443830726,60.06368,-3.09212,9,2,03/10/2015 00:05,1443830712,12.028,26,11,0,0,60.0175,-3.1285,19,5
165,03/10/2015 01:05,1443834310,60.03426,-3.01656,8,2,03/10/2015 01:05,1443834344,12.028,23,11,0,0,60.0222,-3.0853,3,5
166,03/10/2015 02:05,1443837907,60.03588,-2.94487,3,2,03/10/2015 02:05,1443837917,12.028,23,11,0,0,60.0237,-3.0464,3,5
167,03/10/2015 03:05,1443841510,60.03426,-3.01656,2,2,03/10/2015 03:05,1443841502,12.028,23,11,0,0,60.0227,-3.0157,3,5
168,03/10/2015 04:05,1443845158,59.77109,-9.5327,377,2,03/10/2015 04:05,1443845108,12.028,23,11,0,0,60.0203,-3.0012,37,3
169,03/10/2015 05:05,1443848732,60.00639,-2.86957,7,2,03/10/2015 05:05,1443848712,12.028,30,11,0,0,60.0198,-3.003,18,5
170,03/10/2015 06:05,1443852311,60.03746,-2.87316,5,3,03/10/2015 06:05,1443852325,12.028,30,11,0,0,60.0217,-3.0173,3,5
171,03/10/2015 07:05,1443855912,60.03426,-3.01656,3,3,03/10/2015 07:05,1443855953,12.028,30,11,0,0,60.026,-3.037,3,4
172,03/10/2015 08:05,1443859507,60.06534,-3.02034,82,3,03/10/2015 08:05,1443859558,12.028,30,11,0,0,60.0306,-3.0508,3,5
173,03/10/2015 09:05,1443863109,60.06368,-3.09212,3,3,03/10/2015 09:05,1443863116,11.985,29,11,0,0,60.0369,-3.0585,3,5
174,03/10/2015 10:05,1443866728,59.90636,-0.71527,164,2,03/10/2015 10:05,1443866725,11.985,29,11,0,0,60.045,-3.0576,21,5
175,03/10/2015 11:05,1443870307,60.03588,-2.94487,2,2,03/10/2015 11:05,1443870310,11.985,29,11,0,0,60.0549,-3.0464,3,5
176,03/10/2015 12:05,1443873909,60.0816,-3.09212,4,2,03/10/2015 12:05,1443873935,11.985,29,11,0,0,60.0638,-3.0236,3,5
177,03/10/2015 13:05,1443877555,60.11598,-2.95226,7,2,03/10/2015 13:05,1443877501,11.985,23,11,0,0,60.0694,-2.991,36,4
178,03/10/2015 14:05,1443881117,60.01865,0.50258,208,2,03/10/2015 14:05,1443881118,11.985,23,11,0,0,60.0722,-2.9607,3,3
179,03/10/2015 15:05,1443884709,60.11756,-2.88038,6,3,03/10/2015 15:05,1443884707,11.985,23,11,0,0,60.0733,-2.9342,3,4
180,03/10/2015 16:05,1443888323,60.06696,-2.94856,4,2,03/10/2015 16:05,1443888307,11.985,23,11,0,0,60.0746,-2.917,18,4
181,03/10/2015 17:05,1443891906,60.08646,-2.87677,5,3,03/10/2015 17:05,1443891903,11.985,29,11,0,0,60.0766,-2.9109,3,5
182,03/10/2015 18:05,1443895510,60.08646,-2.87677,4,3,03/10/2015 18:05,1443895500,11.985,29,11,0,0,0,0,3,5
183,03/10/2015 19:05,1443899106,60.06855,-2.87677,8,2,03/10/2015 19:05,1443899113,11.985,29,11,0,0,60.0837,-2.9224,3,5
184,03/10/2015 20:05,1443902709,60.08646,-2.87677,3,2,03/10/2015 20:05,1443902744,11.985,29,11,0,0,60.089,-2.9316,3,5
185,03/10/2015 21:05,1443906309,60.06696,-2.94856,4,2,03/10/2015 21:05,1443906323,11.942,30,11,0,0,60.0945,-2.9355,3,3
186,03/10/2015 22:05,1443909910,60.11756,-2.88038,8,2,03/10/2015 22:05,1443909929,11.942,30,11,0,0,60.1004,-2.9331,3,4
187,03/10/2015 23:05,1443913546,60.11756,-2.88038,3,2,03/10/2015 23:05,1443913518,11.942,30,11,0,0,60.1059,-2.9233,38,5
188,04/10/2015 00:05,1443917109,60.11911,-2.80848,2,2,04/10/2015 00:05,1443917109,11.942,30,11,0,0,60.111,-2.9077,3,5
189,04/10/2015 01:06,1443920777,60.11756,-2.88038,3,3,04/10/2015 01:05,1443920713,11.942,28,11,0,0,60.1126,-2.884,70,5
190,04/10/2015 02:05,1443924324,60.08488,-2.94856,9,3,04/10/2015 02:05,1443924310,11.899,28,11,0,0,60.1117,-2.8579,17,5
191,04/10/2015 03:05,1443927911,60.0924,-2.5895,10,2,04/10/2015 03:05,1443927910,11.899,28,11,0,0,60.1073,-2.8303,3,5
192,04/10/2015 04:05,1443931509,60.08801,-2.80496,4,2,04/10/2015 04:05,1443931515,11.856,28,11,0,0,60.1019,-2.8129,3,5
193,04/10/2015 05:05,1443935107,60.08951,-2.73315,3,3,04/10/2015 05:05,1443935110,11.856,25,11,0,0,60.098,-2.8098,3,3
194,04/10/2015 06:05,1443938710,60.08801,-2.80496,4,2,04/10/2015 06:05,1443938719,11.856,25,11,0,0,60.0963,-2.8204,3,5
195,04/10/2015 07:05,1443942341,60.23066,11.12451,379,2,04/10/2015 07:05,1443942302,11.856,25,11,0,0,60.0985,-2.8398,35,4
196,04/10/2015 08:05,1443945934,60.11911,-2.80848,4,3,04/10/2015 08:05,1443945942,11.856,25,11,0,0,60.1046,-2.8607,23,5
197,04/10/2015 09:05,1443949511,60.11911,-2.80848,2,2,04/10/2015 09:05,1443949508,11.856,23,11,0,0,60.1131,-2.8754,3,5
198,04/10/2015 10:05,1443953126,60.10925,-3.2397,14,2,04/10/2015 10:05,1443953136,11.899,23,11,0,0,60.1227,-2.8791,18,4
199,04/10/2015 11:05,1443956710,60.11911,-2.80848,2,2,04/10/2015 11:05,1443956708,11.985,23,11,0,0,60.1315,-2.8719,3,5
200,04/10/2015 12:05,1443960327,60.11911,-2.80848,3,2,04/10/2015 12:05,1443960311,11.985,23,11,0,0,60.1403,-2.8582,18,5
201,04/10/2015 13:05,1443963915,60.1681,-2.81202,5,2,04/10/2015 13:05,1443963941,11.985,24,11,0,0,60.1462,-2.8346,3,3
202,04/10/2015 14:05,1443967509,60.11911,-2.80848,8,2,04/10/2015 14:05,1443967509,11.985,24,11,0,0,60.1494,-2.8102,3,5
203,04/10/2015 15:05,1443971111,60.12061,-2.73658,4,2,04/10/2015 15:05,1443971150,12.028,24,11,0,0,60.1502,-2.7848,3,5
204,04/10/2015 16:05,1443974722,60.16961,-2.74002,5,2,04/10/2015 16:05,1443974708,12.028,24,11,0,0,60.1485,-2.7645,3,5
205,04/10/2015 17:05,1443978309,60.16961,-2.74002,3,2,04/10/2015 17:05,1443978342,11.985,24,11,0,0,60.1459,-2.7527,3,5
206,04/10/2015 18:05,1443981910,60.16961,-2.74002,5,2,04/10/2015 18:05,1443981932,11.985,24,11,0,0,60.1457,-2.7523,3,5
207,04/10/2015 19:05,1443985512,60.12208,-2.66467,2,2,04/10/2015 19:05,1443985542,11.942,24,11,0,0,60.1475,-2.7599,3,5
208,04/10/2015 20:05,1443989109,60.16961,-2.74002,2,2,04/10/2015 20:05,1443989112,11.899,24,11,0,0,60.1511,-2.772,3,5
209,04/10/2015 21:05,1443992721,60.17108,-2.66802,3,2,04/10/2015 21:05,1443992745,11.899,22,11,0,0,60.1571,-2.7837,3,5
210,04/10/2015 22:05,1443996313,60.17108,-2.66802,2,2,04/10/2015 22:05,1443996312,11.942,22,11,0,0,60.1629,-2.7903,3,5
211,04/10/2015 23:05,1443999910,60.19923,-2.81556,4,2,04/10/2015 23:05,1443999901,11.899,22,11,0,0,60.1704,-2.7917,3,5
212,05/10/2015 00:05,1444003513,60.21858,-2.74347,3,2,05/10/2015 00:05,1444003511,11.899,22,11,0,0,60.1779,-2.7855,3,1
213,05/10/2015 01:05,1444007112,60.16961,-2.74002,10,2,05/10/2015 01:05,1444007136,11.899,31,11,0,0,60.1845,-2.7704,3,5
214,05/10/2015 02:05,1444010713,60.22006,-2.67138,5,2,05/10/2015 02:05,1444010710,11.899,31,11,0,0,60.1903,-2.7524,3,5
215,05/10/2015 03:05,1444014312,60.21858,-2.74347,7,2,05/10/2015 03:05,1444014311,11.856,31,11,0,0,60.1942,-2.7306,3,5
216,05/10/2015 04:05,1444017913,60.17108,-2.66802,3,2,05/10/2015 04:05,1444017912,11.856,31,11,0,0,60.1954,-2.7079,3,5
217,05/10/2015 05:05,1444021514,60.17108,-2.66802,2,3,05/10/2015 05:05,1444021508,11.856,23,11,0,0,60.1944,-2.6884,3,1
218,05/10/2015 06:05,1444025134,60.20221,-2.67138,3,3,05/10/2015 06:05,1444025111,11.856,23,11,0,0,60.1946,-2.6776,25,4
219,05/10/2015 07:05,1444028711,60.25263,-2.60256,10,2,05/10/2015 07:05,1444028742,11.856,23,11,0,0,60.1966,-2.6669,3,3
220,05/10/2015 08:07,1444032458,60.20221,-2.67138,4,2,05/10/2015 08:05,1444032330,11.856,23,11,0,0,60.1972,-2.6741,150,4
221,05/10/2015 09:05,1444035916,60.22149,-2.59928,5,3,05/10/2015 09:05,1444035915,11.856,25,11,0,0,60.2011,-2.6786,3,5
222,05/10/2015 10:05,1444039513,60.24972,-2.74693,23,2,05/10/2015 10:05,1444039500,11.856,25,11,0,0,0,0,3,2
223,05/10/2015 11:05,1444043113,60.20221,-2.67138,3,1,05/10/2015 11:05,1444043142,11.856,25,11,0,0,60.214,-2.6859,3,5
224,05/10/2015 12:05,1444046719,60.15453,-1.80116,612,2,05/10/2015 12:05,1444046743,11.856,25,11,0,0,60.2212,-2.6823,3,5
225,05/10/2015 13:05,1444050313,60.20365,-2.59928,5,2,05/10/2015 13:05,1444050359,11.856,28,11,0,0,60.2283,-2.6713,3,3
226,05/10/2015 14:05,1444053909,60.19291,-1.15442,95,2,05/10/2015 14:05,1444053958,11.856,28,11,0,0,60.2342,-2.657,3,5
227,05/10/2015 15:05,1444057509,60.22006,-2.67138,7,4,05/10/2015 15:05,1444057532,11.856,28,11,0,0,60.2398,-2.639,3,3
228,05/10/2015 16:05,1444061111,60.25403,-2.53036,3,4,05/10/2015 16:05,1444061111,11.856,28,11,0,0,60.2462,-2.6218,3,4
229,05/10/2015 17:05,1444064711,60.25403,-2.53036,2,3,05/10/2015 17:05,1444064746,11.856,28,11,0,0,60.2527,-2.6052,3,4
230,05/10/2015 18:05,1444068311,60.25263,-2.60256,2,3,05/10/2015 18:05,1444068311,11.813,28,11,0,0,60.2557,-2.5888,3,5
231,05/10/2015 19:05,1444071923,60.16973,-3.9675,138,3,05/10/2015 19:05,1444071925,11.813,28,11,0,0,60.2578,-2.5775,17,2
232,05/10/2015 20:05,1444075513,60.25403,-2.53036,3,3,05/10/2015 20:05,1444075514,11.813,28,11,0,0,60.26,-2.5713,3,2
233,05/10/2015 21:05,1444079123,60.31759,-1.59315,78,2,05/10/2015 21:05,1444079101,11.813,29,11,0,0,60.2637,-2.5719,3,5
234,05/10/2015 22:05,1444082712,60.28379,-2.60585,3,3,05/10/2015 22:05,1444082720,11.813,29,11,0,0,60.2691,-2.5741,3,5
235,05/10/2015 23:05,1444086324,60.35448,-1.01526,107,2,05/10/2015 23:05,1444086324,11.813,29,11,0,0,60.2755,-2.5737,3,5
236,06/10/2015 00:05,1444089921,60.33276,-2.60914,6,2,06/10/2015 00:05,1444089918,11.813,29,11,0,0,60.2844,-2.5732,3,5
237,06/10/2015 01:05,1444093514,60.33685,-2.39198,14,2,06/10/2015 01:05,1444093500,11.813,33,11,0,0,0,0,3,4
238,06/10/2015 02:05,1444097107,60.30435,-2.46126,2,4,06/10/2015 02:05,1444097143,11.813,33,11,0,0,60.3077,-2.568,3,5
239,06/10/2015 03:05,1444100710,60.6437,2.19697,273,2,06/10/2015 03:05,1444100728,11.77,33,11,0,0,60.3196,-2.5597,3,5
240,06/10/2015 04:05,1444104320,60.37878,-2.75736,15,2,06/10/2015 04:05,1444104346,11.77,33,11,0,0,60.3312,-2.545,3,2
241,06/10/2015 05:05,1444107909,60.33552,-2.46437,15,2,06/10/2015 05:05,1444107946,11.77,34,11,0,0,60.3408,-2.5243,3,5
242,06/10/2015 06:05,1444111510,60.3858,-2.39501,3,3,06/10/2015 06:05,1444111522,11.77,34,11,0,0,60.3475,-2.5038,3,5
243,06/10/2015 07:05,1444115119,60.33552,-2.46437,3,2,06/10/2015 07:05,1444115100,11.77,34,11,0,0,0,0,3,5
244,06/10/2015 08:05,1444118709,60.62941,-7.11594,269,3,06/10/2015 08:05,1444118707,11.77,34,11,0,0,60.3584,-2.4779,3,5
245,06/10/2015 09:05,1444122309,60.38448,-2.46749,3,2,06/10/2015 09:05,1444122322,11.813,33,11,0,0,60.3629,-2.4733,3,5
246,06/10/2015 10:05,1444125919,60.49725,-4.73945,153,2,06/10/2015 10:05,1444125938,11.813,33,11,0,0,60.3675,-2.4723,3,5
247,06/10/2015 11:05,1444129511,60.3858,-2.39501,2,2,06/10/2015 11:05,1444129550,11.813,33,11,0,0,60.3724,-2.4751,3,5
248,06/10/2015 12:05,1444133128,60.33685,-2.39198,5,2,06/10/2015 12:05,1444133112,11.813,33,11,0,0,60.3799,-2.4824,22,5
249,06/10/2015 13:05,1444136710,60.33552,-2.46437,8,3,06/10/2015 13:05,1444136750,11.77,32,11,0,0,60.39,-2.4863,3,1
250,06/10/2015 14:05,1444140310,60.41568,-2.47062,3,6,06/10/2015 14:05,1444140300,11.77,32,10.9,0,0,0,0,3,5
251,06/10/2015 15:05,1444143909,60.46461,-2.47376,7,3,06/10/2015 15:05,1444143951,11.727,32,11,0,0,60.4159,-2.4886,3,3
252,06/10/2015 16:05,1444147541,60.417,-2.39804,14,3,06/10/2015 16:05,1444147501,11.727,32,11,0,0,0,0,35,5
253,06/10/2015 17:05,1444151125,60.43473,-2.39804,4,3,06/10/2015 17:05,1444151101,11.727,34,10.9,0,0,0,0,19,4
254,06/10/2015 18:05,1444154708,60.417,-2.39804,3,2,06/10/2015 18:05,1444154700,11.77,34,11,0,0,0,0,3,5
255,06/10/2015 19:05,1444158307,60.43473,-2.39804,5,2,06/10/2015 19:05,1444158300,11.77,34,11,0,0,0,0,3,5
256,06/10/2015 20:05,1444161928,60.46723,-2.32841,3,2,06/10/2015 20:05,1444161945,11.813,34,10.9,0,0,60.4617,-2.4397,21,5
257,06/10/2015 21:05,1444165518,60.43143,-3.19999,80,4,06/10/2015 21:05,1444165509,11.727,36,10.9,0,0,60.468,-2.4374,3,2